TimeCST,TemperatureF,Dew PointF,Humidity,Sea Level PressureIn,VisibilityMPH,Wind Direction,Wind SpeedMPH,Gust SpeedMPH,PrecipitationIn,Events,Conditions,WindDirDegrees,DateUTC
12:12 AM,21.2,19.4,93,30.03,4.0,East,3.5,-,N/A,,Overcast,100,2013-02-26 06:12:00
12:33 AM,21.2,19.4,93,30.02,3.0,Calm,Calm,-,N/A,,Overcast,0,2013-02-26 06:33:00
12:52 AM,19.4,19.4,100,30.03,3.0,SE,4.6,-,N/A,,Overcast,140,2013-02-26 06:52:00
1:12 AM,19.4,19.4,100,30.03,4.0,SE,3.5,-,N/A,,Overcast,130,2013-02-26 07:12:00
1:33 AM,19.4,19.4,100,30.04,4.0,ESE,3.5,-,N/A,,Overcast,120,2013-02-26 07:33:00
1:52 AM,19.4,19.4,100,30.04,4.0,South,5.8,-,N/A,,Overcast,190,2013-02-26 07:52:00
2:13 AM,19.4,19.4,100,30.04,4.0,South,3.5,-,N/A,,Overcast,190,2013-02-26 08:13:00
2:33 AM,19.4,19.4,100,30.04,3.0,Calm,Calm,-,N/A,,Overcast,0,2013-02-26 08:33:00
2:52 AM,19.4,19.4,100,30.04,2.0,SSW,4.6,-,N/A,,Overcast,210,2013-02-26 08:52:00
3:13 AM,21.2,19.4,93,30.03,1.8,Calm,Calm,-,N/A,,Overcast,0,2013-02-26 09:13:00
3:32 AM,21.2,19.4,93,30.02,1.0,Calm,Calm,-,N/A,,Overcast,0,2013-02-26 09:32:00
3:52 AM,19.4,19.4,100,30.02,1.0,Calm,Calm,-,N/A,,Overcast,0,2013-02-26 09:52:00
4:13 AM,21.2,19.4,93,30.02,0.8,SE,4.6,-,N/A,,Overcast,130,2013-02-26 10:13:00
4:32 AM,21.2,19.4,93,30.02,0.5,SSE,3.5,-,N/A,Fog,Light Freezing Fog,150,2013-02-26 10:32:00
4:52 AM,21.2,19.4,93,30.00,0.5,ESE,3.5,-,N/A,Fog,Light Freezing Fog,120,2013-02-26 10:52:00
5:13 AM,19.4,19.4,100,29.99,0.5,East,4.6,-,N/A,Fog,Light Freezing Fog,100,2013-02-26 11:13:00
5:32 AM,19.4,17.6,93,29.99,0.5,Calm,Calm,-,N/A,Fog,Light Freezing Fog,0,2013-02-26 11:32:00
5:52 AM,19.4,17.6,93,29.99,0.2,Calm,Calm,-,N/A,Fog,Light Freezing Fog,0,2013-02-26 11:52:00
6:13 AM,19.4,17.6,93,30.00,0.5,Calm,Calm,-,N/A,Fog,Light Freezing Fog,0,2013-02-26 12:13:00
6:32 AM,19.4,17.6,93,29.99,0.2,Calm,Calm,-,N/A,Fog,Light Freezing Fog,0,2013-02-26 12:32:00
6:52 AM,19.4,17.6,93,30.00,0.5,Calm,Calm,-,N/A,Fog,Light Freezing Fog,0,2013-02-26 12:52:00
7:13 AM,19.4,17.6,93,30.00,0.8,Calm,Calm,-,N/A,,Overcast,0,2013-02-26 13:13:00
7:32 AM,19.4,17.6,93,30.00,0.2,East,4.6,-,N/A,Fog,Light Freezing Fog,100,2013-02-26 13:32:00
7:53 AM,17.6,15.8,93,30.01,0.2,Calm,Calm,-,N/A,Fog,Light Freezing Fog,0,2013-02-26 13:53:00
8:13 AM,17.6,15.8,93,30.01,0.2,Calm,Calm,-,N/A,Fog,Light Freezing Fog,0,2013-02-26 14:13:00
8:32 AM,17.6,15.8,93,30.01,0.2,Calm,Calm,-,N/A,Fog,Light Freezing Fog,0,2013-02-26 14:32:00
8:53 AM,17.6,15.8,93,30.01,0.2,Calm,Calm,-,N/A,Fog,Light Freezing Fog,0,2013-02-26 14:53:00
9:13 AM,17.6,15.8,93,30.01,0.2,Calm,Calm,-,N/A,Fog,Light Freezing Fog,0,2013-02-26 15:13:00
9:32 AM,17.6,17.6,100,30.01,0.5,East,3.5,-,N/A,Fog,Light Freezing Fog,90,2013-02-26 15:32:00
9:53 AM,17.6,17.6,100,30.01,0.5,Calm,Calm,-,N/A,Fog,Light Freezing Fog,0,2013-02-26 15:53:00
10:12 AM,17.6,17.6,100,30.02,0.5,Calm,Calm,-,N/A,Snow,Light Snow,0,2013-02-26 16:12:00
10:32 AM,19.4,17.6,93,30.02,0.8,Calm,Calm,-,N/A,Snow,Light Snow,0,2013-02-26 16:32:00
10:53 AM,19.4,19.4,100,30.02,0.8,East,3.5,-,N/A,Snow,Light Snow,80,2013-02-26 16:53:00
11:12 AM,21.2,19.4,93,30.02,0.8,East,3.5,-,N/A,,Overcast,100,2013-02-26 17:12:00
11:32 AM,21.2,21.2,100,30.02,1.5,East,3.5,-,N/A,,Overcast,90,2013-02-26 17:32:00
11:53 AM,21.2,21.2,100,30.02,1.8,Calm,Calm,-,N/A,,Overcast,0,2013-02-26 17:53:00
12:12 PM,23.0,21.2,93,30.03,2.0,East,3.5,-,N/A,,Overcast,80,2013-02-26 18:12:00
12:33 PM,23.0,21.2,93,30.01,2.5,NE,4.6,-,N/A,,Overcast,50,2013-02-26 18:33:00
12:52 PM,24.8,21.2,86,30.00,3.0,NE,5.8,-,N/A,,Overcast,40,2013-02-26 18:52:00
1:12 PM,24.8,21.2,86,29.99,3.0,NNE,5.8,-,N/A,,Overcast,30,2013-02-26 19:12:00
1:33 PM,24.8,21.2,86,29.99,3.0,North,5.8,-,N/A,,Overcast,10,2013-02-26 19:33:00
1:52 PM,24.8,21.2,86,29.98,3.0,North,8.1,-,N/A,,Overcast,10,2013-02-26 19:52:00
2:12 PM,24.8,21.2,86,29.97,4.0,NNE,8.1,-,N/A,,Overcast,20,2013-02-26 20:12:00
2:33 PM,24.8,21.2,86,29.97,3.0,North,9.2,-,N/A,,Overcast,10,2013-02-26 20:33:00
2:52 PM,26.6,23.0,86,29.97,4.0,NNE,9.2,-,N/A,,Overcast,20,2013-02-26 20:52:00
3:12 PM,26.6,23.0,86,29.97,4.0,NNE,9.2,-,N/A,,Overcast,30,2013-02-26 21:12:00
3:33 PM,26.6,23.0,86,29.97,4.0,NNE,9.2,-,N/A,,Overcast,30,2013-02-26 21:33:00
3:52 PM,26.6,23.0,86,29.97,4.0,NNE,8.1,-,N/A,,Overcast,30,2013-02-26 21:52:00
4:12 PM,26.6,23.0,86,29.96,5.0,NNE,8.1,-,N/A,,Overcast,20,2013-02-26 22:12:00
4:33 PM,26.6,24.8,93,29.96,4.0,NNE,6.9,-,N/A,,Overcast,20,2013-02-26 22:33:00
4:52 PM,26.6,24.8,93,29.97,5.0,NNE,8.1,-,N/A,,Overcast,30,2013-02-26 22:52:00
5:13 PM,26.6,24.8,93,29.97,5.0,North,9.2,-,N/A,,Overcast,10,2013-02-26 23:13:00
5:33 PM,26.6,23.0,86,29.97,4.0,North,12.7,-,N/A,,Overcast,360,2013-02-26 23:33:00
5:52 PM,24.8,21.2,86,29.97,4.0,North,10.4,-,N/A,,Overcast,360,2013-02-26 23:52:00
6:13 PM,24.8,21.2,86,29.97,4.0,North,10.4,-,N/A,,Scattered Clouds,360,2013-02-27 00:13:00
6:33 PM,23.0,21.2,93,29.97,4.0,North,10.4,-,N/A,,Clear,10,2013-02-27 00:33:00
6:52 PM,21.2,19.4,93,29.97,4.0,North,11.5,-,N/A,,Scattered Clouds,360,2013-02-27 00:52:00
7:13 PM,21.2,21.2,100,29.98,3.0,North,11.5,-,N/A,,Overcast,360,2013-02-27 01:13:00
7:33 PM,21.2,21.2,100,29.98,2.5,North,12.7,17.3,N/A,,Overcast,360,2013-02-27 01:33:00
7:52 PM,19.4,19.4,100,29.98,1.5,North,13.8,-,N/A,,Overcast,360,2013-02-27 01:52:00
8:13 PM,19.4,17.6,93,29.98,2.0,North,10.4,-,N/A,,Overcast,360,2013-02-27 02:13:00
8:33 PM,17.6,17.6,100,29.98,1.5,North,12.7,-,N/A,,Overcast,10,2013-02-27 02:33:00
8:52 PM,17.6,17.6,100,29.99,3.0,North,9.2,-,N/A,,Overcast,10,2013-02-27 02:52:00
9:13 PM,17.6,17.6,100,29.98,2.0,North,9.2,-,N/A,,Overcast,360,2013-02-27 03:13:00
9:32 PM,17.6,15.8,93,29.99,3.0,North,10.4,-,N/A,,Overcast,10,2013-02-27 03:32:00
9:52 PM,17.6,15.8,93,29.98,4.0,North,9.2,-,N/A,,Overcast,10,2013-02-27 03:52:00
10:13 PM,15.8,14.0,93,29.98,5.0,North,8.1,-,N/A,,Mostly Cloudy,10,2013-02-27 04:13:00
10:32 PM,15.8,14.0,93,29.98,7.0,NNE,9.2,-,N/A,,Clear,20,2013-02-27 04:32:00
10:53 PM,15.8,12.2,86,29.98,7.0,NNE,6.9,-,N/A,,Clear,20,2013-02-27 04:53:00
11:13 PM,15.8,12.2,86,29.98,7.0,NNE,5.8,-,N/A,,Clear,20,2013-02-27 05:13:00
11:32 PM,15.8,12.2,86,29.98,7.0,NNE,6.9,-,N/A,,Clear,20,2013-02-27 05:32:00
11:53 PM,15.8,12.2,86,29.98,7.0,NNE,8.1,-,N/A,,Clear,20,2013-02-27 05:53:00